Wind_Speed
32 31 27 24 26 26 25 27 23 19 22 27 28 24 20 22 21 18 18 18 22 25 27 28 26 24 23 22 22 22 22 22 21 20 19 18 18 18 17 16 15 13 13 14 14 14 14 13 12 12 11 12 13 14 15 16 16 15 15 15 15 15 14
31 29 26 21 21 24 24 24 22 19 20 24 29 27 22 22 22 19 16 14 17 22 25 27 26 24 23 23 23 23 23 23 22 21 20 19 19 19 18 16 15 14 14 15 15 15 16 15 14 13 13 14 15 16 17 17 16 16 16 16 15 15 16
34 32 27 20 19 23 22 22 23 21 20 23 27 28 24 22 21 19 16 12 13 17 21 24 25 23 23 24 24 24 24 23 22 21 20 19 18 19 18 17 16 15 15 15 16 16 16 16 16 15 15 17 17 17 17 17 16 16 15 15 16 18 19
35 33 28 21 19 21 21 22 25 23 21 23 25 26 23 22 21 20 17 13 12 14 17 21 23 23 23 24 25 24 24 23 22 21 20 19 19 20 20 18 16 16 16 15 15 16 17 16 17 18 18 18 18 18 18 18 18 17 16 17 19 21 23
34 32 29 23 20 21 21 22 27 27 24 24 25 24 23 22 22 21 19 16 14 14 16 19 21 22 23 24 25 24 24 23 22 21 20 19 20 21 21 19 17 17 17 17 17 18 18 17 16 18 20 20 20 20 20 20 20 19 19 20 21 23 24
34 33 29 25 23 24 23 23 27 30 29 29 29 26 25 24 24 23 21 19 16 16 18 20 21 23 24 25 26 25 24 24 23 21 20 20 21 22 21 19 18 18 18 19 19 20 20 19 18 19 21 22 23 24 24 23 23 23 25 26 24 24 25
33 33 30 27 24 24 24 23 25 29 30 33 34 33 31 28 26 25 24 22 20 18 19 21 22 23 25 26 26 25 25 25 24 22 20 20 21 22 20 19 19 20 20 20 21 21 22 21 21 21 23 24 26 27 27 27 27 28 30 30 27 26 26
33 36 35 31 25 21 21 22 25 28 29 30 34 38 37 31 27 26 25 23 22 21 21 21 22 24 25 26 26 26 26 25 25 23 22 22 22 22 20 20 20 21 21 22 21 22 23 23 23 24 25 25 26 28 29 29 31 33 33 32 30 29 28
32 35 37 33 28 23 21 22 24 26 27 26 29 37 41 36 28 26 26 25 24 24 23 22 22 24 25 26 26 25 26 26 25 24 23 23 24 23 22 21 22 22 22 23 23 23 23 24 25 26 27 27 28 29 29 30 31 34 35 34 33 32 31
29 32 35 34 30 24 20 19 20 21 24 25 25 33 40 37 29 27 27 27 26 25 24 23 23 24 26 27 26 26 27 27 25 24 24 24 25 24 23 23 23 23 23 25 25 24 24 25 27 28 29 29 30 31 31 31 32 32 34 35 35 35 35
30 29 31 31 25 21 18 17 16 15 18 23 22 27 36 37 30 27 26 27 27 27 26 25 25 25 25 26 27 28 28 27 26 25 25 25 25 24 23 23 24 24 25 26 26 25 24 26 27 28 29 30 31 32 34 35 35 35 34 35 35 36 37
31 26 24 25 23 20 18 16 12 11 14 22 24 26 32 34 31 27 25 26 28 28 28 27 27 26 25 24 26 27 27 27 27 25 24 24 25 25 23 22 23 25 25 25 27 27 26 27 28 28 30 30 31 33 34 36 37 38 38 36 35 36 37
28 22 19 23 24 21 20 18 13 11 13 18 25 28 31 32 31 28 24 24 27 29 29 28 28 28 26 24 25 26 26 26 25 24 23 23 24 24 22 22 23 24 24 24 26 28 28 29 30 31 31 32 33 34 35 36 38 39 39 39 38 37 37
27 24 23 23 21 19 21 20 16 15 14 15 20 27 31 32 32 29 25 24 26 28 29 28 29 30 28 26 26 26 25 23 23 23 22 22 23 23 22 22 22 24 24 24 25 27 28 30 31 32 33 33 35 36 36 37 39 40 40 39 40 40 38
25 25 25 24 20 18 19 19 19 20 19 16 17 23 29 31 32 30 28 26 26 27 28 28 29 30 30 28 26 26 25 22 22 23 22 23 24 23 23 22 22 23 25 25 24 25 28 30 31 32 33 34 35 36 36 37 39 40 40 39 39 40 40
21 25 28 30 27 24 23 22 22 24 22 16 15 21 27 30 30 30 29 27 27 28 29 28 29 30 31 29 27 26 25 24 23 23 24 24 24 23 23 23 23 23 25 25 25 26 28 31 32 32 32 33 34 35 35 37 39 39 39 39 38 39 40
24 26 31 34 31 29 31 29 26 27 23 15 13 18 24 29 30 30 30 29 28 28 29 29 29 29 29 29 27 26 26 25 25 25 25 25 25 24 24 23 23 24 25 26 27 28 30 32 32 31 31 31 33 34 36 36 37 37 38 38 38 39 39
31 29 29 28 25 25 28 30 31 31 24 14 10 12 19 27 31 30 29 29 28 27 28 29 29 28 27 27 27 26 25 25 27 27 27 26 26 25 24 24 24 25 26 28 30 30 31 31 32 33 32 32 32 33 35 35 35 36 38 37 38 39 39
34 33 31 28 26 24 23 25 29 29 26 20 14 13 16 22 29 31 29 27 28 28 27 28 29 28 27 28 27 26 24 25 28 29 28 27 27 25 25 25 26 27 28 30 30 30 30 30 32 34 34 33 32 32 34 34 35 37 37 36 38 39 38
32 34 35 31 27 23 21 23 25 27 28 25 19 15 17 21 27 31 31 29 29 29 27 28 29 28 29 29 28 27 26 26 28 29 29 29 27 26 27 28 29 30 30 29 28 28 29 30 31 32 32 31 30 31 33 34 35 37 36 35 37 39 36
30 31 34 34 29 24 22 23 24 25 28 27 23 17 17 22 28 32 32 30 31 29 28 29 30 30 31 31 29 29 29 28 28 29 30 29 28 28 30 30 30 30 28 26 26 26 27 27 27 27 27 27 27 28 31 33 35 37 36 34 36 38 36
33 30 31 33 32 31 29 27 26 26 27 28 28 23 17 20 27 33 34 32 32 31 30 32 34 33 32 32 31 31 31 29 29 30 29 29 30 30 30 30 29 27 26 25 24 24 23 23 23 23 22 23 24 26 30 34 37 39 37 33 34 38 38
39 35 35 35 35 36 37 35 33 33 32 31 31 28 21 18 22 30 36 35 34 33 33 34 36 35 35 34 32 31 31 29 29 29 30 31 31 30 28 27 26 25 24 23 22 21 21 21 20 20 19 21 23 25 29 34 38 39 37 34 34 36 36
41 40 40 39 39 41 43 45 42 40 40 38 35 31 27 22 20 25 34 38 36 35 35 36 36 37 37 35 32 31 31 30 30 31 32 32 30 28 26 25 24 23 21 20 20 20 19 19 20 20 20 22 23 24 27 32 36 36 35 34 34 34 33
41 43 43 44 44 42 43 46 44 40 41 43 40 36 33 27 21 23 32 39 39 37 37 38 38 38 37 35 32 32 32 32 32 32 31 30 28 27 25 23 22 20 18 19 19 18 18 23 24 23 22 23 24 24 24 28 32 34 33 33 32 32 32
36 39 40 41 43 42 41 44 45 41 40 43 43 40 36 29 23 23 30 39 41 39 39 39 38 38 37 33 32 33 34 34 33 30 30 30 28 26 23 20 18 16 16 17 17 19 24 26 25 24 24 25 25 25 24 25 28 30 31 31 31 31 32
30 32 35 37 38 38 41 46 47 44 42 43 43 41 37 31 26 25 29 37 43 42 41 40 38 37 36 34 35 36 36 35 33 31 30 29 27 24 21 16 14 15 15 16 20 27 28 26 24 25 26 26 26 26 25 24 25 28 30 30 30 29 30
30 27 27 33 34 34 40 49 51 47 43 42 42 42 39 34 31 29 29 35 42 44 42 40 38 37 37 37 38 38 36 34 33 32 30 28 26 23 19 14 15 16 18 24 32 33 27 24 24 26 27 27 28 27 25 24 24 26 28 29 29 28 28
35 30 25 28 29 27 30 40 44 43 41 41 43 43 41 38 35 31 29 34 42 45 43 40 38 38 39 39 38 37 35 34 33 32 29 27 25 21 17 15 18 23 28 35 37 31 25 24 26 27 28 29 28 27 26 25 24 25 27 29 29 28 27
33 34 28 26 29 29 29 31 34 36 38 41 43 41 39 38 35 30 31 38 44 45 43 41 40 40 39 38 37 36 35 34 32 31 29 27 24 21 18 19 25 30 33 33 29 25 24 26 28 28 28 28 27 27 26 25 24 25 26 27 28 28 29
33 35 29 25 28 34 34 31 32 36 38 39 40 39 37 35 32 31 36 42 45 45 45 44 42 40 37 36 36 36 35 34 32 31 28 24 21 19 21 24 29 31 29 27 25 25 27 27 28 28 28 27 27 27 26 25 24 25 25 24 25 25 26
35 37 37 31 26 27 29 29 29 33 35 36 35 35 34 34 32 33 38 43 46 47 47 43 39 38 37 37 37 36 35 33 31 28 23 20 19 21 25 27 28 27 26 26 26 27 27 28 28 27 27 26 26 26 25 23 22 23 23 22 22 21 20
35 36 41 37 26 23 27 29 27 28 30 31 31 32 32 33 34 35 40 46 48 46 42 40 39 39 38 37 36 35 33 30 27 23 21 20 20 21 22 24 25 27 27 27 28 28 28 28 28 26 26 25 24 24 23 20 19 19 20 21 21 19 17
36 34 33 31 24 21 21 21 21 22 24 26 30 31 31 33 36 38 42 46 45 42 40 39 38 37 36 35 34 32 29 26 23 22 22 21 18 18 20 24 28 29 28 28 29 29 28 27 26 25 25 24 23 23 22 19 18 19 20 21 21 17 14
34 28 23 23 23 22 22 21 22 24 26 29 32 32 30 33 37 39 40 41 41 40 40 39 38 36 34 32 30 27 25 23 22 23 21 18 18 21 25 29 29 29 28 28 29 28 26 25 24 24 23 22 21 22 21 20 20 21 20 19 17 14 12
24 21 18 19 21 24 24 22 21 22 24 26 27 28 29 32 35 36 36 37 38 39 37 35 34 32 29 27 25 23 22 22 23 21 18 17 20 24 27 28 28 28 29 28 27 26 24 22 21 21 21 21 21 22 22 21 21 20 19 16 14 12 11
17 17 16 17 20 24 24 21 20 21 21 23 25 28 31 34 35 35 36 35 34 32 29 28 27 25 24 23 21 19 19 20 20 19 19 22 23 23 25 27 28 28 27 26 25 23 21 20 20 20 21 22 23 24 24 22 20 19 18 16 14 13 11
14 15 16 17 18 20 21 22 24 26 29 31 33 34 35 35 34 33 32 29 28 25 23 22 22 21 20 18 15 15 16 18 18 20 22 24 24 23 25 26 26 25 24 23 21 20 19 18 19 19 20 21 22 23 22 21 19 18 16 15 13 12 10
Wind_Direction
233 235 234 230 231 231 224 227 232 229 234 239 243 246 240 239 247 248 248 247 239 234 230 229 229 227 226 226 224 220 216 214 213 214 216 217 219 222 225 224 225 226 223 226 231 235 239 243 245 251 261 274 284 292 298 302 304 307 309 313 318 323 328
228 225 227 232 234 238 236 231 233 232 231 234 240 244 241 237 243 248 248 249 245 239 234 231 227 223 221 223 222 216 213 212 212 213 215 216 218 222 226 225 225 229 228 229 234 238 241 244 246 251 259 268 278 286 292 298 302 306 309 312 318 323 325
216 215 226 238 240 246 248 238 235 232 226 229 236 238 237 235 239 245 247 248 246 240 236 233 227 221 219 220 220 215 210 212 214 215 216 218 220 223 226 226 227 231 232 233 237 241 244 246 249 254 257 263 274 282 289 296 302 309 313 315 320 324 322
214 217 227 236 239 249 255 245 238 234 227 227 232 234 235 235 237 242 244 242 240 238 236 232 226 220 217 219 219 215 210 212 216 217 218 220 221 225 228 228 229 233 236 240 243 245 248 249 251 256 261 266 275 282 289 295 301 306 308 311 316 320 319
216 220 227 234 241 246 251 248 240 234 229 227 230 232 232 234 235 237 239 237 233 233 233 230 225 219 217 218 219 216 212 214 218 219 221 222 223 226 231 232 234 236 239 244 247 248 253 257 258 260 266 274 279 283 287 292 296 297 296 301 308 314 317
218 215 219 232 244 244 244 245 240 236 236 235 237 236 232 231 232 232 234 234 230 226 226 224 220 217 217 218 219 217 214 216 219 221 222 225 226 229 234 238 240 241 244 248 250 252 258 265 268 268 274 280 283 285 287 288 291 292 293 296 299 304 309
216 209 215 234 245 240 238 238 235 234 238 242 245 246 240 233 230 230 230 230 229 225 224 222 218 215 216 218 219 218 217 218 221 223 225 227 229 232 238 243 246 246 249 253 255 259 264 269 272 274 279 284 286 288 288 286 287 289 292 293 294 295 298
220 216 223 237 237 225 226 230 229 230 233 238 241 244 243 236 229 229 229 228 227 225 225 224 220 217 217 218 218 218 221 222 223 225 228 230 234 237 242 247 248 250 255 261 264 267 270 273 274 276 280 284 287 291 291 288 287 288 290 290 290 290 291
228 227 229 232 223 217 224 225 226 229 230 230 229 233 239 239 230 227 229 229 227 225 226 226 224 222 219 219 219 219 222 225 226 228 231 235 238 242 248 250 251 255 260 265 271 275 276 277 278 279 282 283 285 289 293 292 291 292 291 290 288 287 289
232 234 226 219 218 227 236 228 227 232 230 227 222 223 233 239 233 227 228 229 228 226 227 228 227 225 222 221 221 221 223 226 228 230 233 238 242 246 251 254 256 259 262 266 271 277 280 280 280 282 285 286 287 288 291 292 292 293 294 291 287 286 288
231 228 211 207 217 232 233 223 231 243 238 236 232 226 232 237 235 230 228 230 230 227 226 228 229 228 225 222 221 222 226 228 230 232 235 240 245 248 252 257 259 260 263 266 271 277 280 280 282 285 289 292 293 291 290 290 290 291 293 292 288 286 286
221 219 211 216 226 232 226 221 238 262 253 244 239 232 232 235 235 232 230 230 231 228 226 227 229 231 228 223 221 224 226 229 232 234 236 239 245 249 252 255 258 260 262 265 271 277 279 279 281 286 291 295 296 294 292 291 290 289 290 291 289 287 287
215 220 226 225 224 226 222 218 233 258 261 251 242 235 233 233 233 233 233 233 231 229 228 228 230 233 233 227 224 225 227 229 232 234 235 238 243 248 250 251 256 262 265 266 267 273 279 283 285 287 290 293 294 294 294 292 291 289 289 289 288 288 289
224 222 218 216 220 226 221 219 230 245 257 260 249 239 235 233 233 233 235 238 235 230 230 231 232 235 237 233 228 229 230 230 231 234 235 236 240 244 247 248 252 260 268 271 269 271 276 282 286 289 290 291 291 291 292 292 290 289 289 289 288 288 289
227 216 212 216 225 229 227 232 241 244 253 262 256 246 238 234 233 232 233 238 238 233 232 234 234 235 239 238 234 234 233 231 232 234 233 234 236 240 244 247 251 257 265 271 274 275 275 278 282 285 287 288 288 288 289 289 288 288 289 290 289 288 288
227 218 222 230 232 231 232 237 241 245 252 256 251 247 241 235 232 230 229 234 237 234 231 236 237 236 238 240 238 237 235 232 234 234 234 235 236 239 244 248 251 256 262 268 272 274 275 277 280 282 283 285 286 286 286 285 286 288 289 290 289 288 287
235 228 229 234 236 237 237 234 237 244 247 245 243 246 244 238 233 230 228 230 236 236 231 236 242 239 237 239 239 237 234 232 233 235 236 238 239 241 245 247 251 256 261 265 268 270 272 276 280 283 284 285 286 285 285 285 285 286 287 288 286 284 284
239 235 233 234 236 243 242 237 238 242 241 235 234 244 247 241 233 228 226 226 235 238 232 234 242 242 237 236 237 236 233 229 231 235 236 237 241 243 244 247 251 255 258 262 266 270 273 276 280 284 287 288 289 289 288 287 285 282 281 282 282 281 280
236 233 232 237 243 249 249 244 242 240 236 236 239 239 244 244 234 225 223 225 232 237 233 232 239 242 236 233 233 234 230 227 229 233 234 236 239 241 242 245 249 252 256 261 266 271 274 278 282 286 289 291 294 294 292 290 288 283 279 279 280 280 279
233 230 229 237 247 245 240 242 245 243 239 240 245 241 237 240 235 225 220 222 227 233 232 229 234 240 237 233 231 231 229 228 229 231 233 235 237 237 239 243 248 253 259 264 267 271 275 280 284 287 290 292 295 296 294 292 290 286 281 278 278 279 279
232 230 227 230 236 236 234 240 245 251 251 244 240 242 239 234 231 225 220 220 225 230 229 225 228 235 237 234 230 229 229 228 228 230 232 234 235 236 239 245 252 256 261 265 267 271 275 280 284 287 288 291 293 294 293 292 291 287 282 278 278 278 278
237 234 229 225 226 232 240 245 247 254 260 250 240 242 242 232 229 227 223 222 225 227 224 222 225 230 234 233 229 227 227 227 227 229 231 233 234 237 242 249 254 257 261 264 266 270 274 278 281 282 284 289 293 295 294 291 289 287 282 278 276 276 276
242 239 239 235 231 235 244 250 250 252 255 252 244 242 241 237 233 229 225 223 226 226 224 222 225 228 232 232 229 226 226 226 226 228 231 233 236 241 246 250 253 257 259 261 264 267 269 271 274 276 283 291 296 300 297 291 288 288 287 285 279 275 274
246 244 244 242 238 241 249 251 246 244 248 248 245 244 246 245 239 233 228 225 226 227 225 223 224 228 231 231 227 225 225 225 227 229 232 235 239 242 245 247 251 254 254 258 263 263 268 278 281 280 288 296 301 306 302 293 291 292 292 289 282 274 272
248 247 246 245 242 242 250 251 242 239 245 246 245 248 249 246 243 240 231 225 226 229 228 227 226 228 231 230 225 224 225 226 228 230 234 238 239 241 243 244 246 250 255 260 260 263 283 296 290 283 289 298 303 309 306 297 295 296 294 291 285 276 271
250 250 247 246 244 240 243 246 242 240 242 243 245 249 248 243 245 245 232 225 226 229 231 231 231 231 231 229 224 224 225 225 226 229 233 236 236 237 239 241 246 258 264 262 264 282 297 296 286 284 293 298 301 307 307 300 296 296 294 291 288 282 276
244 246 244 244 244 239 236 239 241 240 239 239 244 246 242 242 248 246 233 225 226 229 232 235 236 234 230 226 224 224 224 224 226 227 228 231 232 232 234 242 261 275 273 274 292 303 299 288 283 289 295 297 298 302 304 299 294 292 290 289 288 288 285
242 243 245 243 242 241 236 235 236 236 233 234 240 240 237 242 251 247 233 227 227 229 231 233 234 233 228 224 224 224 222 223 225 226 226 227 227 228 236 257 281 290 290 296 304 304 293 282 284 290 293 294 294 294 295 293 290 289 287 286 288 290 289
250 249 249 243 241 239 232 226 225 226 226 229 236 237 235 242 251 246 232 227 227 227 228 229 230 230 227 224 224 223 222 222 224 224 225 224 224 231 248 273 290 296 296 298 299 294 284 281 286 289 291 290 289 287 287 286 287 288 287 286 288 289 287
247 242 242 240 239 236 232 226 224 227 231 235 238 239 239 244 249 243 229 224 225 225 225 225 225 226 225 223 222 221 220 220 221 221 220 221 226 236 251 269 282 289 291 292 289 284 282 285 287 287 287 286 285 285 284 285 287 287 287 287 288 288 289
242 235 234 241 244 242 242 242 240 239 241 243 243 242 242 245 245 235 224 221 222 223 224 223 222 222 220 219 218 218 217 216 217 217 218 224 235 252 266 274 280 285 286 284 282 282 285 285 283 283 283 283 283 284 286 288 287 284 283 285 286 289 292
241 236 238 246 254 257 257 256 250 244 243 244 243 241 242 241 238 231 224 221 222 223 222 220 218 217 216 216 215 214 213 214 215 216 221 235 254 269 278 280 283 285 285 284 284 285 284 282 280 280 281 281 284 286 288 290 288 285 284 283 283 286 287
243 246 248 250 258 270 269 262 253 242 237 236 235 236 238 237 235 231 224 221 222 222 218 215 215 215 214 213 211 209 209 211 213 218 232 250 261 267 273 281 287 289 288 286 285 283 281 280 280 280 280 281 285 288 289 289 287 287 286 283 280 279 277
250 255 253 248 250 256 251 241 231 223 219 219 221 225 229 228 227 224 219 217 218 216 212 211 210 209 208 206 205 205 207 209 216 230 245 256 261 267 278 288 290 288 285 283 280 278 277 278 278 279 281 284 287 288 287 285 282 282 280 279 279 276 273
250 252 247 244 245 236 221 212 210 210 212 211 212 214 215 213 213 212 210 210 210 208 206 205 202 201 201 202 202 204 208 217 232 244 251 258 265 276 287 290 286 280 278 276 274 273 274 275 277 280 283 285 286 285 283 280 278 278 278 278 280 277 273
242 242 238 238 233 219 210 209 210 212 213 210 207 206 202 199 200 199 198 200 201 200 199 199 197 197 198 201 206 214 223 235 244 247 253 265 274 281 289 289 281 274 271 270 270 271 272 274 277 280 281 280 279 279 280 277 275 275 278 280 279 278 280
232 230 222 217 213 210 210 209 202 197 189 179 175 176 179 181 183 184 186 188 190 191 193 196 199 202 206 212 221 228 233 239 242 247 259 270 275 280 286 284 274 268 266 267 269 270 271 272 275 276 278 279 277 277 278 277 272 272 276 279 280 282 287
197 191 182 179 184 190 189 181 174 171 166 163 164 167 170 172 174 176 178 181 184 188 193 198 203 206 209 216 224 230 236 244 250 258 267 270 270 275 278 272 263 261 263 265 266 267 270 274 276 276 277 277 276 276 276 273 271 273 276 279 282 286 287
Height
3136 3136 3137 3139 3139 3141 3142 3143 3143 3146 3146 3146 3146 3150 3152 3153 3154 3155 3156 3157 3159 3161 3163 3164 3166 3168 3170 3171 3173 3174 3176 3177 3179 3180 3181 3182 3183 3185 3186 3187 3187 3188 3189 3190 3191 3192 3193 3193 3194 3195 3195 3195 3195 3194 3194 3194 3194 3194 3193 3192 3192 3192 3192
3131 3132 3133 3135 3136 3137 3139 3140 3141 3143 3144 3143 3144 3147 3149 3151 3152 3153 3154 3156 3157 3159 3160 3162 3164 3166 3168 3169 3171 3172 3174 3175 3177 3178 3179 3181 3182 3183 3184 3185 3186 3187 3188 3189 3190 3190 3191 3192 3193 3193 3194 3193 3193 3193 3193 3193 3193 3193 3192 3192 3192 3192 3191
3127 3129 3131 3132 3133 3134 3136 3138 3139 3140 3142 3141 3142 3143 3146 3148 3150 3151 3153 3154 3156 3157 3158 3160 3162 3164 3166 3167 3168 3170 3172 3173 3175 3176 3177 3179 3180 3181 3182 3184 3185 3186 3186 3187 3188 3188 3189 3190 3191 3192 3192 3192 3192 3192 3191 3191 3191 3191 3191 3191 3191 3191 3190
3122 3125 3127 3129 3132 3133 3134 3136 3136 3137 3138 3139 3139 3141 3144 3146 3148 3150 3151 3153 3154 3155 3156 3157 3160 3162 3164 3165 3166 3168 3170 3171 3173 3174 3176 3177 3178 3179 3180 3182 3183 3184 3184 3185 3186 3187 3187 3189 3189 3190 3190 3190 3190 3189 3189 3189 3189 3190 3190 3190 3189 3189 3189
3119 3122 3124 3126 3129 3131 3131 3133 3133 3134 3135 3137 3138 3139 3142 3144 3146 3148 3149 3151 3152 3153 3154 3156 3158 3160 3162 3163 3164 3166 3168 3169 3171 3172 3174 3175 3176 3177 3178 3180 3181 3182 3183 3183 3184 3184 3185 3187 3188 3188 3188 3187 3187 3187 3187 3187 3187 3187 3187 3187 3187 3188 3188
3116 3117 3120 3122 3126 3127 3129 3130 3131 3132 3134 3135 3137 3137 3139 3142 3143 3145 3147 3149 3150 3151 3152 3154 3155 3158 3159 3160 3162 3164 3166 3167 3169 3171 3172 3173 3174 3175 3176 3177 3179 3180 3181 3181 3182 3182 3183 3184 3185 3186 3186 3185 3185 3185 3186 3186 3186 3185 3185 3185 3185 3186 3186
3114 3112 3114 3118 3122 3124 3125 3127 3128 3131 3132 3133 3136 3136 3136 3138 3140 3143 3144 3146 3148 3149 3150 3151 3153 3155 3156 3158 3160 3161 3163 3165 3166 3168 3170 3171 3172 3173 3174 3175 3176 3177 3178 3179 3180 3180 3181 3182 3183 3183 3183 3183 3183 3183 3184 3184 3184 3184 3183 3183 3183 3183 3183
3113 3110 3110 3115 3119 3120 3122 3124 3126 3128 3129 3131 3132 3133 3132 3134 3137 3140 3141 3143 3145 3146 3148 3149 3151 3153 3154 3155 3157 3159 3161 3162 3164 3166 3168 3169 3169 3171 3172 3173 3174 3175 3176 3176 3177 3178 3179 3180 3181 3181 3181 3181 3181 3181 3181 3182 3182 3182 3182 3182 3181 3181 3181
3110 3107 3107 3112 3115 3116 3118 3121 3123 3125 3127 3128 3129 3129 3129 3130 3133 3136 3138 3140 3142 3143 3145 3147 3149 3150 3152 3153 3155 3157 3159 3160 3162 3164 3165 3166 3167 3168 3170 3171 3172 3173 3174 3174 3175 3176 3177 3177 3178 3178 3178 3179 3179 3179 3179 3179 3179 3179 3179 3180 3179 3179 3178
3105 3104 3104 3107 3109 3112 3116 3119 3121 3123 3124 3125 3126 3126 3125 3126 3130 3133 3135 3137 3139 3140 3143 3145 3147 3148 3149 3151 3153 3155 3156 3158 3160 3162 3163 3164 3165 3166 3168 3169 3170 3171 3172 3173 3172 3173 3175 3175 3175 3176 3175 3176 3177 3177 3177 3177 3177 3176 3176 3177 3177 3176 3176
3103 3101 3102 3104 3106 3109 3112 3115 3117 3119 3120 3121 3121 3121 3121 3123 3127 3130 3132 3134 3135 3138 3140 3142 3144 3145 3147 3149 3150 3152 3153 3155 3157 3159 3160 3161 3162 3164 3166 3167 3168 3168 3170 3170 3170 3171 3172 3172 3173 3173 3172 3173 3174 3174 3174 3174 3174 3174 3174 3174 3174 3174 3173
3100 3100 3102 3103 3104 3106 3108 3110 3113 3114 3115 3116 3116 3117 3119 3121 3124 3127 3129 3131 3133 3135 3137 3139 3140 3142 3144 3146 3148 3149 3151 3152 3154 3156 3158 3159 3160 3161 3163 3165 3165 3166 3167 3168 3168 3168 3168 3169 3169 3170 3170 3170 3170 3171 3171 3171 3171 3171 3171 3171 3171 3171 3170
3096 3099 3101 3101 3103 3104 3105 3107 3109 3111 3113 3113 3114 3116 3117 3119 3121 3124 3126 3128 3130 3132 3134 3136 3137 3138 3140 3143 3145 3146 3148 3150 3152 3154 3155 3157 3158 3159 3161 3162 3163 3163 3164 3166 3166 3166 3166 3166 3166 3167 3167 3168 3167 3168 3168 3168 3168 3168 3168 3168 3168 3167 3167
3093 3097 3100 3101 3102 3103 3104 3105 3106 3109 3111 3112 3113 3114 3115 3117 3118 3121 3123 3125 3126 3129 3131 3132 3134 3135 3136 3140 3142 3143 3145 3148 3150 3151 3153 3154 3156 3156 3158 3159 3161 3161 3161 3162 3163 3164 3164 3164 3164 3164 3165 3165 3164 3164 3165 3164 3164 3164 3165 3165 3165 3164 3164
3092 3095 3096 3098 3099 3101 3103 3104 3104 3106 3108 3110 3111 3112 3113 3114 3116 3118 3120 3122 3123 3125 3127 3129 3131 3132 3133 3136 3139 3140 3143 3146 3147 3148 3150 3152 3153 3154 3155 3157 3158 3159 3159 3159 3160 3161 3161 3161 3161 3162 3162 3162 3161 3161 3161 3161 3160 3160 3161 3162 3161 3161 3160
3093 3094 3093 3094 3097 3099 3100 3101 3102 3103 3105 3107 3107 3108 3110 3111 3113 3115 3117 3119 3121 3122 3124 3126 3127 3129 3130 3132 3135 3138 3140 3143 3144 3145 3147 3148 3150 3152 3153 3154 3156 3157 3156 3157 3157 3158 3158 3158 3158 3158 3159 3159 3158 3158 3158 3157 3156 3157 3157 3158 3158 3157 3156
3090 3091 3090 3090 3094 3096 3097 3098 3099 3101 3103 3105 3104 3105 3107 3108 3110 3112 3114 3117 3118 3119 3121 3123 3123 3126 3128 3130 3132 3135 3138 3140 3142 3143 3144 3146 3147 3149 3151 3152 3153 3154 3154 3154 3154 3155 3155 3155 3155 3155 3156 3156 3156 3155 3154 3154 3154 3154 3153 3154 3153 3152 3151
3086 3088 3088 3088 3090 3092 3093 3094 3096 3098 3101 3102 3102 3102 3104 3105 3107 3109 3111 3113 3115 3117 3119 3120 3120 3122 3125 3127 3129 3131 3134 3137 3139 3140 3141 3143 3145 3146 3148 3149 3150 3151 3151 3151 3151 3152 3152 3152 3152 3152 3152 3152 3152 3151 3151 3150 3150 3150 3149 3149 3149 3147 3146
3083 3085 3086 3086 3086 3089 3090 3090 3092 3095 3098 3099 3099 3100 3101 3102 3104 3106 3108 3111 3112 3114 3116 3117 3118 3120 3122 3124 3126 3128 3131 3133 3135 3137 3139 3141 3142 3144 3145 3146 3147 3148 3148 3148 3149 3149 3149 3149 3149 3148 3148 3148 3148 3148 3147 3146 3146 3146 3145 3145 3144 3142 3142
3079 3081 3084 3083 3083 3085 3087 3088 3089 3091 3093 3095 3097 3098 3099 3100 3101 3103 3106 3108 3110 3111 3114 3115 3116 3117 3118 3121 3123 3125 3127 3129 3132 3134 3136 3138 3140 3141 3142 3143 3144 3144 3145 3146 3147 3147 3147 3147 3146 3146 3145 3145 3145 3144 3143 3142 3142 3142 3141 3142 3140 3138 3137
3075 3078 3080 3081 3081 3081 3082 3085 3086 3087 3090 3092 3094 3095 3096 3097 3099 3100 3102 3105 3107 3109 3111 3112 3113 3114 3115 3117 3120 3122 3124 3126 3129 3131 3133 3135 3137 3138 3139 3140 3141 3141 3142 3144 3145 3145 3145 3145 3144 3144 3144 3143 3142 3141 3139 3137 3137 3137 3138 3138 3137 3135 3133
3071 3075 3076 3077 3079 3079 3079 3081 3083 3084 3086 3088 3090 3091 3092 3094 3096 3097 3099 3101 3103 3105 3108 3109 3110 3111 3112 3114 3117 3118 3120 3123 3126 3128 3130 3132 3133 3135 3136 3137 3138 3139 3140 3141 3142 3142 3143 3143 3142 3142 3141 3140 3139 3138 3136 3133 3132 3132 3133 3134 3133 3131 3130
3067 3070 3072 3073 3076 3076 3076 3077 3079 3081 3083 3084 3086 3088 3089 3091 3092 3093 3095 3097 3099 3102 3104 3105 3106 3108 3109 3111 3113 3115 3118 3120 3123 3125 3127 3128 3130 3131 3133 3134 3135 3136 3138 3139 3139 3140 3140 3140 3140 3139 3138 3137 3135 3134 3132 3129 3128 3128 3129 3129 3129 3127 3126
3062 3065 3066 3068 3071 3072 3072 3072 3074 3076 3078 3080 3082 3083 3086 3087 3088 3089 3091 3093 3096 3098 3100 3101 3103 3104 3105 3108 3110 3113 3115 3118 3120 3122 3124 3125 3127 3129 3131 3132 3133 3134 3136 3136 3137 3137 3137 3137 3136 3135 3134 3133 3132 3131 3129 3126 3124 3124 3125 3125 3124 3123 3122
3059 3060 3061 3062 3065 3067 3068 3067 3068 3070 3072 3075 3077 3079 3081 3083 3083 3085 3087 3089 3092 3094 3096 3097 3099 3101 3102 3105 3108 3110 3112 3114 3117 3119 3121 3123 3125 3127 3128 3129 3131 3132 3133 3134 3134 3134 3134 3133 3133 3131 3130 3129 3128 3127 3126 3123 3121 3121 3120 3120 3119 3119 3118
3054 3055 3056 3057 3058 3061 3063 3062 3062 3065 3067 3069 3072 3075 3077 3078 3079 3081 3082 3084 3087 3090 3091 3093 3096 3098 3100 3102 3105 3107 3109 3111 3113 3115 3118 3120 3122 3124 3125 3127 3128 3129 3130 3130 3131 3130 3130 3130 3129 3127 3126 3125 3124 3123 3122 3120 3118 3117 3116 3116 3115 3114 3114
3048 3049 3051 3052 3052 3056 3058 3057 3057 3060 3063 3065 3068 3071 3072 3073 3074 3076 3078 3080 3082 3085 3088 3089 3092 3095 3097 3100 3102 3103 3105 3108 3110 3112 3114 3117 3119 3120 3122 3123 3124 3125 3125 3126 3127 3127 3127 3126 3125 3123 3122 3121 3119 3118 3118 3117 3115 3114 3113 3112 3111 3111 3110
3043 3045 3046 3046 3047 3050 3051 3051 3052 3055 3059 3062 3064 3066 3067 3068 3069 3071 3074 3076 3078 3081 3083 3085 3088 3091 3093 3095 3097 3099 3102 3105 3107 3109 3111 3113 3115 3116 3118 3119 3119 3120 3120 3121 3121 3122 3123 3122 3121 3119 3118 3117 3116 3115 3114 3113 3112 3111 3110 3109 3108 3108 3107
3039 3042 3043 3042 3043 3045 3046 3046 3049 3051 3054 3057 3059 3060 3062 3064 3065 3067 3070 3072 3074 3077 3079 3082 3084 3086 3088 3090 3093 3096 3099 3102 3104 3106 3108 3110 3111 3112 3113 3114 3114 3115 3116 3116 3116 3117 3118 3118 3117 3116 3115 3113 3112 3111 3110 3109 3108 3107 3106 3106 3105 3105 3103
3035 3038 3041 3041 3042 3043 3043 3045 3047 3049 3050 3052 3054 3056 3058 3060 3061 3064 3066 3067 3069 3073 3075 3078 3079 3081 3084 3087 3090 3093 3097 3099 3102 3103 3104 3105 3106 3107 3108 3109 3109 3111 3112 3113 3113 3113 3114 3114 3113 3112 3111 3109 3108 3107 3106 3105 3105 3104 3103 3103 3102 3101 3100
3033 3035 3036 3038 3039 3040 3040 3042 3045 3045 3046 3047 3050 3052 3054 3056 3058 3060 3061 3063 3066 3068 3071 3073 3075 3078 3081 3085 3088 3091 3094 3096 3097 3099 3100 3102 3103 3104 3105 3105 3105 3106 3108 3109 3109 3109 3110 3109 3109 3108 3106 3105 3104 3103 3102 3102 3102 3101 3100 3100 3099 3098 3098
3032 3032 3031 3032 3034 3036 3037 3040 3042 3042 3042 3044 3046 3048 3051 3053 3054 3056 3058 3060 3061 3063 3067 3070 3074 3077 3079 3082 3085 3088 3090 3092 3094 3096 3098 3099 3100 3101 3102 3103 3103 3103 3104 3104 3105 3105 3105 3104 3104 3103 3102 3101 3100 3099 3099 3099 3099 3098 3097 3096 3096 3095 3095
3028 3028 3029 3031 3034 3035 3035 3037 3038 3038 3038 3040 3042 3045 3047 3049 3050 3052 3054 3056 3058 3062 3067 3070 3073 3075 3077 3080 3082 3085 3087 3089 3091 3092 3094 3095 3096 3097 3098 3099 3100 3101 3101 3101 3101 3100 3100 3099 3099 3098 3098 3097 3096 3096 3095 3095 3095 3094 3093 3093 3093 3093 3093
3024 3025 3027 3028 3031 3033 3032 3033 3033 3034 3036 3037 3039 3041 3044 3046 3048 3050 3052 3056 3060 3064 3066 3069 3071 3073 3075 3077 3079 3081 3083 3085 3087 3088 3089 3091 3092 3093 3093 3095 3097 3097 3098 3098 3097 3096 3096 3095 3094 3094 3093 3093 3093 3092 3091 3091 3091 3091 3090 3090 3090 3090 3090
3021 3023 3025 3025 3027 3029 3028 3028 3029 3031 3033 3035 3037 3039 3043 3045 3046 3048 3052 3056 3059 3062 3063 3066 3068 3070 3072 3074 3076 3079 3081 3083 3084 3085 3086 3087 3088 3089 3089 3090 3092 3093 3094 3094 3093 3092 3092 3091 3091 3090 3089 3089 3089 3088 3088 3088 3088 3088 3088 3087 3087 3087 3088
3018 3021 3023 3024 3027 3027 3027 3027 3029 3031 3033 3035 3037 3039 3043 3045 3046 3048 3052 3055 3057 3060 3062 3064 3066 3068 3070 3073 3075 3077 3079 3080 3080 3082 3084 3084 3085 3085 3084 3085 3088 3089 3090 3090 3089 3088 3088 3088 3087 3087 3086 3086 3086 3086 3085 3085 3085 3085 3085 3085 3085 3085 3086
3017 3019 3022 3024 3027 3028 3028 3028 3030 3031 3033 3035 3037 3038 3040 3042 3044 3047 3051 3053 3056 3059 3061 3063 3065 3067 3069 3071 3073 3075 3076 3077 3077 3079 3081 3081 3082 3081 3080 3081 3084 3086 3086 3086 3085 3085 3084 3084 3084 3084 3084 3084 3084 3083 3083 3083 3083 3083 3083 3083 3083 3083 3083
3019 3021 3022 3024 3027 3028 3029 3029 3030 3032 3033 3035 3036 3037 3039 3042 3044 3047 3050 3053 3055 3058 3060 3062 3063 3064 3066 3068 3070 3072 3073 3073 3074 3076 3077 3077 3077 3077 3076 3077 3079 3081 3081 3081 3081 3081 3081 3081 3081 3081 3081 3082 3081 3081 3081 3081 3081 3081 3081 3081 3081 3081 3080